Weather Roundup
Issued by NWS Springfield, MO

Home | Current Version | Previous Version | Text Only | Print | Product List | Glossary On
Versions: 1 2 3 4 5 6 7 8 9 10 11 12 13 14 15 16 17 18 19 20 21 22 23 24 25 26 27 28 29 30 31 32 33 34 35 36 37 38 39 40 41 42 43 44 45 46 47 48 49 50
277
NZUS99 KSGF 040407
HRRSGF

HOURLY WEATHER
NATIONAL WEATHER SERVICE SPRINGFIELD MO
1000 PM CST SAT DEC 03 2016

......SGF CWA......

CITY           SKY/WX    TMP DP  RH WIND       PRES   REMARKS
SPRINGFIELD    LGT RAIN  39  36  89 E13       30.10F WCI  31
JOPLIN         CLOUDY    41  39  93 MISG      30.10S
WEST PLAINS    MIX PCPN  37  35  92 E8        30.15F WCI  31
ROLLA          CLOUDY    40  32  73 SE5       30.17F
OSAGE BEACH    LGT RAIN  40  35  83 SE5       30.18F
BRANSON        CLOUDY    37  37 100 E9        30.13R FOG     WCI  31

......SURROUNDING SGF CWA......

CITY           SKY/WX    TMP DP  RH WIND       PRES   REMARKS
CHANUTE        LGT RAIN  43  40  89 E9        30.09F FOG
PARSONS        CLOUDY    43  41  93 VRB5      30.11R
COFFEYVILLE    CLOUDY    43  41  93 E7        30.10S
EMPORIA        LGT RAIN  40  39  97 CALM      30.08F
GROVE OK       DRIZZLE   43  41  93 E6        30.09F
ROGERS AR      LGT RAIN  40  39  97 E9        30.08F WCI  34
SILOAM SPRINGS CLOUDY    41  37  87 E3        30.06F
HARRISON AR    FOG       38  38 100 E7        30.11S VSB 1/2 WCI  33
NEAR YELLVILLE CLOUDY    39  34  81 E5        30.11S

......KANSAS AND MISSOURI......

CITY           SKY/WX    TMP DP  RH WIND       PRES   REMARKS
KANSAS CTY INT LGT RAIN  42  34  73 SE6       30.10F
DOWNTOWN KC    LGT RAIN  46  36  68 S12       30.11F
COLUMBIA       LGT RAIN  41  32  70 SE7       30.19S
SEDALIA        CLOUDY    43  32  65 SE8       30.15F
ST JOSEPH      CLOUDY    40  36  86 CALM      30.12S
ST LOUIS       CLOUDY    42  32  67 E9        30.24S
SPIRIT OF STL  CLOUDY    41  33  73 E6        30.23F
KIRKSVILLE     CLOUDY    39  32  76 SE12      30.17S WCI  32
WICHITA        LGT RAIN  41  41 100 CALM      30.07S FOG
TOPEKA         LGT RAIN  41  38  89 CALM      30.11S
OLATHE         LGT RAIN  42  37  82 S10       30.11S

......TENNESSEE......

CITY           SKY/WX    TMP DP  RH WIND       PRES   REMARKS
MEMPHIS        LGT RAIN  43  41  93 E12       30.15S
NASHVILLE      LGT RAIN  40  36  86 NE7       30.25F

......ARKANSAS.......

CITY           SKY/WX    TMP DP  RH WIND       PRES   REMARKS
FAYETTEVILLE   LGT RAIN  42  42 100 E6        30.06F FOG
FT SMITH       LGT RAIN  44  42  93 E10       30.08R FOG
LITTLE ROCK    LGT RAIN  42  42 100 E21G29    30.08F

......OKLAHOMA.......

CITY           SKY/WX    TMP DP  RH WIND       PRES   REMARKS
TULSA          DRIZZLE   45  45 100 E5        30.06F FOG
PONCA CITY     LGT RAIN  44  41  89 SE10      30.07S FOG
MCALESTER      CLOUDY    46  43  89 NE3       30.05R FOG
OKLAHOMA CITY  CLOUDY    44  43  96 E7        30.03F FOG

......IOWA............

CITY           SKY/WX    TMP DP  RH WIND       PRES   REMARKS
DES MOINES     LGT RAIN  37  34  89 E10       30.14F WCI  30
QUAD CITIES    CLOUDY    35  26  69 SE9       30.25F WCI  28

......ILLINOIS........

CITY           SKY/WX    TMP DP  RH WIND       PRES   REMARKS
QUINCY         CLOUDY    38  34  85 SE10      30.21F WCI  31
CHICAGO        CLOUDY    31  26  82 S5        30.28F WCI  26




USA.gov is the U.S. government's official web portal to all federal, state and local government web resources and services.